map of MNCH home
Great Circle Mapper logo
MNCH - Facility
Location
City:  Chinandega, Nicaragua
ICAO:MNCH

Details
Type:Facility
Latitude:1238'N (12.633)
Longitude:8708'W (-87.133)
Variation:0.13W (WMM2015 magnetic declination)
-0.14 annual change

Time
Time Zone:UTC-6
Local Time:

Weather
METAR:MNCH 032200Z 04004KT 9999 FEW025 SCT090 36/19 Q1006

Related Locations
Nearby:
Farthest:CCK: 12180 mi / 19601 km
West Island (Pulau Panjang) [Cocos (Keeling) Islands], CC

Find:

   beyond  
but within

Other Information
Maps:
NOTAMs:
Links:
Sources:

  
flag of Nicaragua   

Sectional Chart

Flight Planning
at skyvector.com

Satellite Image

Google Maps Satellite view

 

Copyright © 2004-2015 Karl L. Swartz. All rights reserved.
The Great Circle Mapper name and logo are trademarks of the Great Circle Mapper.
All other trademarks mentioned herein belong to their respective owners.
Please see credits for attibutions and further copyright information.

  Follow gcmap on Facebook Follow gcmap on Twitter Follow gcmap on Google+

hCard Microformat

Geo Microformat